Regional Weather Roundup
Issued by NWS

Home | Current Version | Previous Version | Text Only | Print | Product List | Glossary Off
Versions: 1 2 3 4 5 6 7 8 9 10 11 12 13 14 15 16 17 18 19 20 21 22 23 24 25 26 27 28 29 30 31 32 33 34 35 36 37 38 39 40 41 42 43 44 45 46 47 48 49 50

000
ASUS45 KTFX 221910
RWRMT
MONTANA REGIONAL WEATHER ROUNDUP
NATIONAL WEATHER SERVICE GREAT FALLS MT
100 PM MDT SUN APR 22 2018

NOTE: "FAIR" INDICATES FEW OR NO CLOUDS BELOW 12000 FEET WITH NO
SIGNIFICANT WEATHER AND/OR OBSTRUCTIONS TO VISIBILITY.

MTZ001>007-043-222000-
WEST OF THE DIVIDE

CITY           SKY/WX    TMP DP  RH WIND       PRES   REMARKS
KALISPELL      FAIR      52  18  26 E5        30.18F
MISSOULA       FAIR      52  22  30 NE5       30.17F
BUTTE          FAIR      52  25  35 N5        30.11F
MULLAN PASS    FAIR      37  14  38 VRB5      30.17S
ANACONDA         N/A     50  23  34 MISG      30.12F
DEER LODGE       N/A     48  23  37 N3        30.15F
HAMILTON         N/A     52  21  30 MISG      30.16S
PLAINS           N/A     55  25  31 NW1       30.19F
RONAN            N/A     50  16  25 CALM      30.21S
$$

MTZ008-052>055-222000-
SOUTHWEST MONTANA

CITY           SKY/WX    TMP DP  RH WIND       PRES   REMARKS
BOZEMAN        FAIR      55  27  34 CALM      30.10F
DILLON         CLOUDY    54  29  38 N7        30.07F
ENNIS          MOSUNNY   57  30  35 N9        30.11F
W YELLOWSTONE  FAIR      50  23  34 SW17      30.11F
THREE FORKS      N/A     57  26  30 N2        30.09F
TWIN BRIDGES     N/A     56  26  31 N8        30.06F
$$

MTZ009-010-012-014-046-048-049-054-222000-
EAST SLOPES AND CENTRAL MONTANA

CITY           SKY/WX    TMP DP  RH WIND       PRES   REMARKS
CUT BANK       FAIR      51  14  22 MISG      30.13F
GREAT FALLS    FAIR      53  17  24 W13G22    30.13F
HELENA         FAIR      57  25  29 N7        30.12F
AUGUSTA        FAIR      48   8  20 CALM      30.13F
BOWMANS CRNR   FAIR      49  11  22 W3        30.11F
CHOTEAU          N/A     50  14  23 S6        30.15F
FAIRFIELD      FAIR      50  11  21 E6        30.13F
POWER          FAIR      50  17  27 CALM      30.13F
RAYNESFORD     FAIR      53  22  30 NW10      30.13S
ULM            PTSUNNY   53  18  24 N7        30.13F
WHITE SULPHUR    N/A     52  25  35 VRB5G12   30.11F
$$

MTZ011-013-016-021-045-047-050-051-222000-
NORTH CENTRAL MONTANA

CITY           SKY/WX    TMP DP  RH WIND       PRES   REMARKS
HAVRE          PTSUNNY   57  23  26 NW9       30.12F
LEWISTOWN      FAIR      55  24  30 NW12G17   30.11F
N BAR RANCH    FAIR      55  21  26 S16       30.14F
CHINOOK          N/A     55  21  26 SW7       30.12F
GEYSER         FAIR      54  25  32 NW12G21   30.11F
GRASS RANGE    FAIR      55  22  27 NW8       30.09F
STANFORD       FAIR      53  23  31 N7        30.12F
$$

MTZ017>020-022>027-061-062-222000-
NORTHEAST MONTANA

CITY           SKY/WX    TMP DP  RH WIND       PRES   REMARKS
GLASGOW        FAIR      63  22  20 W16       30.11F
GLENDIVE       FAIR      64  20  18 VRB3      30.13F
JORDAN           N/A     61  26  26 SW10      30.13F
MALTA          SUNNY     57  28  33 W15       30.11S
SIDNEY         FAIR      63  23  21 VRB6      30.12F
WOLF POINT     FAIR      64  23  21 SW12G21   30.12F
PLENTYWOOD       N/A     59  25  27 SW16      30.10F
POPLAR           N/A     61  19  20 W12       30.12F
SCOBEY           N/A     61  22  22 SW16      30.08F
$$

MTZ028>42-056>058-222000-
SOUTHCENTRAL AND SOUTHEAST MONTANA

CITY           SKY/WX    TMP DP  RH WIND       PRES   REMARKS
BAKER          FAIR      62  23  22 CALM      30.14F
BILLINGS       FAIR      59  26  28 E8        30.10F
LIVINGSTON     FAIR      59  32  36 NE9       30.08F
MILES CITY     FAIR      61  23  23 CALM      30.13F
BIG TIMBER     SUNNY     57  25  28 E9        30.11F
EKALAKA          N/A     62  19  19 NW3       30.10F
FORSYTH          N/A     59  19  21 N3        30.13F
HARLOWTON      FAIR      56  22  26 SE12G18   30.11F
LAUREL           N/A     61  25  25 E10       30.10F
$$

REGIONAL REPORTS...DAKOTAS

CITY           SKY/WX    TMP DP  RH WIND       PRES   REMARKS
WILLISTON      FAIR      63  29  27 SW7       30.12F
MINOT          FAIR      62  30  29 MISG      30.11F
DICKINSON      FAIR      64  23  21 NW6       30.10F
BEACH          FAIR      61  14  16 SW3       30.16F
CROSBY         FAIR      61  27  27 SW15      30.10F
TIOGA          FAIR      57  30  35 VRB5G14   30.13F
WATFORD CITY   FAIR      61  25  25 CALM      30.12
BISMARCK       FAIR      66  39  37 S10       30.12F
GRAND FORKS    FAIR      58  44  60 S20G29    30.17F
FARGO          FAIR      62  38  40 S22G31    30.21F
BUFFALO SD       N/A     65  28  24 NE12      30.05F
RAPID CITY     FAIR      61  38  42 VRB3      30.12F
$$

REGIONAL REPORTS...WYOMING/IDAHO/WASHINGTON

CITY           SKY/WX    TMP DP  RH WIND       PRES   REMARKS
GILLETTE       FAIR      61  41  47 VRB6      30.11F
SHERIDAN       FAIR      61  30  31 E12       30.10F
BUFFALO WY     FAIR      60  31  33 SE10      30.12F
CODY           FAIR      60  28  29 CALM      30.09F
YELLOWSTONE LA   N/A     51  21  30 VRB3      30.19F
IDAHO FALLS    FAIR      66  33  29 SW16G22   30.08F
SALMON         FAIR      55  32  41 CALM      30.06F
BOISE          FAIR      59  29  31 NW17G24   30.10F
SPOKANE        PTSUNNY   50  26  39 NW7       30.26F
$$

REGIONAL REPORTS...ALBERTA

CITY           SKY/WX    TMP DP  RH WIND       PRES   REMARKS
CALGARY        MOSUNNY   50  12  22 N10       30.14S
CARDSTON         N/A     50  14  23 W7          N/A
EDMONTON       PTSUNNY   46  25  42 W18G30    30.09R
FORT MCMURRAY  PTSUNNY   45  37  76 W15G22    29.91R
HIGH LEVEL     MOSUNNY   37  28  70 NW6       30.09R
LETHBRIDGE     PTSUNNY   50  21  32 VRB13G20  30.14R
LLOYDMINSTER   CLOUDY    43  34  70 W22G32    29.99R
MEDICINE HAT   MOSUNNY   55  21  26 W8        30.12F
MILK RIVER       N/A     52  18  25 N9          N/A
PEACE RIVER    MOSUNNY   46  21  36 NW13      30.13R
PINCHER CREEK  PTSUNNY   48  19  32 SW10      30.14S
WATERTON GATE    N/A     46  14  27 W13         N/A
$$

REGIONAL REPORTS...SASKATCHEWAN

CITY           SKY/WX    TMP DP  RH WIND       PRES   REMARKS
CORONACH         N/A     61  23  23 W10         N/A
CYPRESS HILLS    N/A     43  16  33 N3          N/A
ESTEVAN        PTSUNNY   63  30  29 W18G25    30.08F
MOOSE JAW        N/A     57  23  26 W22G28      N/A
PRINCE ALBERT  PTSUNNY   48  34  57 W24G35    29.85R
REGINA         MOSUNNY   57  27  30 W22G31    30.05F
ROCKGLEN         N/A     57  25  28 W12G18      N/A
SASKATOON      MOSUNNY   54  32  43 W26G37    29.96R
SWIFT CURRENT  MOSUNNY   54  23  30 W21G30    30.09S
VAL MARIE        N/A     57  23  26 SW14G21     N/A
$$



USA.gov is the U.S. government's official web portal to all federal, state and local government web resources and services.